Regional Weather Roundup
Issued by NWS

Home | Current Version | Previous Version | Graphics & Text | Print | Product List | Glossary On
Versions: 1 2 3 4 5 6 7 8 9 10 11 12 13 14 15 16 17 18 19 20 21 22 23 24 25 26 27 28 29 30 31 32 33 34 35 36 37 38 39 40 41 42 43 44 45 46 47 48 49 50
000
ASUS45 KBOU 251407
RWRCO

WEATHER ROUNDUP FOR COLORADO
NATIONAL WEATHER SERVICE DENVER/BOULDER CO
800 AM MDT MON JUL 25 2016

NOTE: "FAIR" INDICATES FEW OR NO CLOUDS BELOW 12000 FEET WITH NO
SIGNIFICANT WEATHER AND/OR OBSTRUCTIONS TO VISIBILITY.

COZ001>005-013-030-031-251500-
...NORTHWEST COLORADO...

CITY           SKY/WX    TMP DP  RH WIND       PRES   REMARKS
CRAIG          FAIR      57  42  57 CALM      30.30R
HAYDEN         FAIR      59  37  44 E10       30.32R
MEEKER         FAIR      59  42  53 NE5       30.30R
MOUNT WERNER   NOT AVBL
STEAMBOAT SPGS FAIR      56  41  58 CALM      30.34S
WALDEN         FAIR      52  37  58 CALM      30.45S
$$

COZ006>008-011-251500-
...WEST CENTRAL VALLEYS...

CITY           SKY/WX    TMP DP  RH WIND       PRES   REMARKS
GRAND JUNCTION FAIR      74  42  31 SE13      30.17R
MONTROSE       FAIR      73  43  33 E5        30.28R
EAGLE          SUNNY     55  43  62 CALM      30.40S
RIFLE          FAIR      63  44  50 CALM      30.27R
DELTA          FAIR      70  42  36 CALM      30.23S
NUCLA          NOT AVBL
$$

COZ017>023-064>068-251500-
...SOUTHWEST COLORADO...

CITY           SKY/WX    TMP DP  RH WIND       PRES   REMARKS
DURANGO        FAIR      61  47  59 CALM      30.35R
CORTEZ         FAIR      67  48  50 E3        30.28R
PAGOSA SPRINGS FAIR      61  43  51 CALM      30.44R
TELLURIDE      FAIR      60  40  46 SE5       30.55S
WOLF CREEK PAS FAIR      54  36  50 W3        30.76S
$$

COZ009-010-012-014-032>034-037-058>063-251500-
...CENTRAL COLORADO...

CITY           SKY/WX    TMP DP  RH WIND       PRES   REMARKS
ASPEN          FAIR      59  41  51 CALM      30.41S
BUENA VISTA    FAIR      57  44  63 N3        30.47S
COPPER MTN     FAIR      59  32  36 S8        30.75S
BERTHOUD PASS  FAIR      48  34  57 W6        30.77S
COTTONWOOD PAS FAIR      61  43  51 CALM      30.59S
GUNNISON       FAIR      52  39  62 CALM      30.50S
KREMMLING      FAIR      50  45  81 CALM      30.46R
LEADVILLE      FAIR      53  40  61 N3        30.59S
MONARCH PASS   FAIR      50  37  62 SW10      30.85S
SALIDA         FAIR      61  44  53 N6        30.52S
SUNLIGHT       FAIR      59  36  41 SW3       30.67R
WILKERSON PASS FAIR      54  37  54 W6        30.72R
$$

COZ069>075-251500-
...SAN LUIS VALLEY/SANGRE DE CRISTO MOUNTAINS...

CITY           SKY/WX    TMP DP  RH WIND       PRES   REMARKS
ALAMOSA        FAIR      58  47  66 E3        30.44R
LA VETA PASS   PTSUNNY   57  43  58 S8G16     30.60S
SAGUACHE       FAIR      61  43  51 NW16      30.46R
$$

COZ035-036-038>040-251500-
...NORTHERN COLORADO FRONT RANGE...

CITY           SKY/WX    TMP DP  RH WIND       PRES   REMARKS
DENVER INTL AP FAIR      67  55  65 E5        30.21R
DMNS CITY PARK   N/A     70  54  55 CALM      30.20S
AURORA         NOT AVBL
FRONT RANGE AP MOSUNNY   64  55  72 E8        30.23R
ERIE MUNI ARPT FAIR      64  56  75 CALM      30.20S
BOULDER MUN AP FAIR      64  55  72 NE3       30.20S
CENTENNIAL     FAIR      72  49  44 VRB5      30.23S
BROOMFIELD     MOSUNNY   66  55  68 CALM      30.22S
LONGMONT       FAIR      67  57  70 E3        30.21R
$$

COZ041-046-047-076>085-087-088-251500-
...PIKES PEAK/PALMER DIVIDE AND SOUTHERN FOOTHILLS...

CITY           SKY/WX    TMP DP  RH WIND       PRES   REMARKS
COLO. SPRINGS  FAIR      62  55  77 S5        30.33R
A. F. ACADEMY  NOT AVBL
SCHRIEVER AFB  NOT AVBL
ELLICOTT       FAIR     N/A N/A N/A CALM      30.31R
FALCON         NOT AVBL
FORT CARSON    FAIR      61  57  87 S6        30.30R
LIMON          FAIR      63  56  78 S9        30.27S
MONUMENT HILL  FAIR      66  50  55 SW10      30.34S
TRINIDAD       NOT AVBL
$$

COZ042>045-048>051-090-091-251500-
...NORTHEAST COLORADO...

CITY           SKY/WX    TMP DP  RH WIND       PRES   REMARKS
GREELEY ARPT   FAIR      61  57  88 E7        30.21R
AKRON          FAIR      64  56  75 SE15      30.21F
BURLINGTON     FAIR      67  58  72 SE3       30.22S
WRAY           NOT AVBL
STERLING       FAIR      68  59  73 SE8       30.18F
HOLYOKE        FAIR      68  59  73 W7        30.20S
FORT MORGAN    FAIR      64  57  79 E7        30.21R
$$

COZ086-089-092>099-251500-
...SOUTHEAST COLORADO...

CITY           SKY/WX    TMP DP  RH WIND       PRES   REMARKS
PUEBLO         FAIR      68  58  70 E7        30.24S
LA JUNTA       FAIR      68  62  81 W3        30.22S
LAMAR          FAIR      69  61  75 NW6       30.18S
SPRINGFIELD      N/A     71  58  63 W5        30.21S
$$



USA.gov is the U.S. government's official web portal to all federal, state and local government web resources and services.